Terug naar catalogus

STARLINK-30157

ActiefCommunicatieVLEO
NORAD 57512·PAYLOAD·🇺🇸 United States

Gelanceerd Aug 7, 2023 vanaf Cape Canaveral Space Force Station

Loading…

Volgende Passages (komende 24 uur)

TLE

VersSource: CelesTrak SupGP

Epoch: Sep 14, 2026, 21:47 UTC

1 57512C 23113T   26257.90812500 -.00078730  00000+0 -28505-2 0  2572
2 57512  43.0026   1.6716 0001752 269.2698 132.3438 15.27630213    10

Volg STARLINK-30157 in realtime met AllMySat

Download on the App Store